Dewpoint
38 36 34 33 33 35 36 36 35 34 34 35 35 34 33 33 33 29 31 35 38 41 44 47 46 47 45 45 46 48 49 51 53 57 59 62 66 66 66 65 65 65 65
39 36 35 34 33 33 35 35 34 32 32 34 34 34 33 32 32 32 29 31 35 39 41 44 47 48 48 46 46 47 48 50 52 55 58 61 66 66 65 64 65 65 65
40 39 36 35 34 35 36 35 35 34 32 33 34 33 32 32 30 32 30 30 30 33 38 41 44 46 50 48 46 47 48 49 52 54 57 59 65 65 65 64 64 64 65
41 39 36 35 36 36 34 34 32 32 32 31 31 31 31 30 31 31 31 31 29 30 32 39 41 43 46 49 47 47 49 49 51 53 56 59 64 65 65 64 64 64 64
40 39 36 36 38 35 35 34 33 33 31 31 30 30 30 29 29 26 30 32 33 33 31 34 39 42 44 46 48 48 49 50 51 54 57 59 63 64 64 64 64 64 64
39 39 37 37 38 35 34 34 35 33 32 30 27 27 29 29 29 29 30 30 32 34 34 34 35 36 40 43 46 47 48 50 51 54 57 59 63 64 64 64 64 64 64
37 38 36 36 37 36 35 36 35 34 32 32 29 27 27 30 31 29 32 33 34 34 35 34 35 36 36 41 44 46 47 49 51 55 58 59 63 64 64 64 64 64 63
37 35 36 34 35 33 35 36 35 32 32 32 31 26 21 22 27 31 33 35 37 35 34 35 35 37 38 39 43 46 46 48 51 55 57 60 61 64 64 64 64 64 63
36 37 36 35 35 35 32 33 34 34 32 31 33 34 28 19 24 28 32 34 36 36 36 36 35 37 39 40 41 44 45 47 50 52 56 57 62 65 64 64 64 63 63
35 35 36 36 36 34 34 33 32 33 35 32 31 30 32 31 30 19 28 33 35 35 39 35 35 37 39 40 42 43 45 47 48 50 53 56 62 64 64 64 64 63 63
34 34 35 35 34 33 34 34 33 33 31 34 31 32 32 31 31 32 21 28 33 34 35 36 37 38 40 41 41 44 46 49 48 49 52 54 62 64 64 64 64 63 63
30 32 33 33 33 32 32 32 33 34 35 34 34 34 34 34 33 33 28 26 30 33 34 37 39 40 41 41 40 44 45 48 47 48 48 53 60 64 64 64 64 63 62
28 30 32 33 31 32 32 32 34 35 36 37 37 37 35 36 34 33 32 29 28 32 33 37 39 40 40 42 41 45 48 47 46 48 52 55 61 62 63 63 63 63 62
29 32 32 32 32 32 33 35 36 37 37 39 37 37 38 38 35 34 33 32 25 30 31 34 37 39 41 43 45 48 48 48 49 50 53 56 59 60 60 61 61 61 61
30 31 32 32 34 34 35 37 36 36 37 37 36 38 38 38 38 35 34 32 28 27 28 32 34 38 40 43 46 48 48 49 49 49 51 55 57 58 58 59 59 59 59
31 32 33 35 36 36 35 34 33 33 32 34 34 34 36 36 37 37 36 32 29 28 28 32 33 37 40 42 46 48 50 49 48 48 50 52 54 56 56 56 56 56 57
32 33 34 34 34 33 33 32 33 33 33 33 33 33 34 35 37 37 35 31 30 28 30 32 35 38 40 46 47 49 50 51 54 48 49 51 52 53 53 54 53 54 54
34 35 34 34 33 33 34 33 32 33 33 33 33 33 33 34 35 36 34 32 31 29 30 31 35 36 40 46 48 48 48 49 53 49 50 50 51 51 51 51 50 51 51
33 34 34 33 33 33 33 34 33 33 33 33 33 33 33 33 33 35 33 32 32 28 32 33 35 39 43 46 46 48 50 52 52 50 50 49 50 50 50 50 49 50 49
32 32 33 33 33 33 33 33 34 33 33 32 33 33 33 34 35 34 32 31 32 31 33 34 35 39 43 44 45 46 48 51 53 55 54 53 52 49 49 48 48 48 48
33 33 34 34 34 33 33 32 33 33 32 32 33 33 35 35 35 33 31 32 33 32 34 34 35 39 41 43 43 46 47 51 54 56 54 55 55 56 52 50 49 48 46
34 34 35 33 33 32 34 35 33 32 32 32 32 33 35 34 34 33 33 33 33 33 34 35 36 38 40 43 44 46 49 51 51 56 54 55 57 55 56 56 46 46 46
34 34 34 33 33 33 34 35 34 33 33 32 32 33 32 34 35 33 33 33 33 33 31 36 38 41 41 43 46 47 49 49 48 50 49 44 47 43 46 47 45 45 45
33 33 33 34 33 33 34 34 33 33 33 33 33 33 34 34 34 33 31 32 32 33 33 32 42 45 44 44 47 50 49 50 49 50 52 41 43 39 42 43 43 44 43
32 34 34 34 33 33 34 32 33 33 33 33 34 35 35 35 33 32 32 32 32 33 33 35 36 38 38 42 47 50 50 47 45 43 46 43 40 37 37 36 40 41 41
33 34 34 34 34 33 32 31 32 32 32 32 33 34 32 34 32 31 32 33 32 34 32 35 38 43 44 45 41 50 52 48 45 45 45 43 39 40 36 36 36 39 39
Lifted_Index
13 14 14 14 14 15 14 15 15 15 16 16 16 17 17 18 19 19 19 19 19 18 16 14 13 12 11 11 11 11 9 6 4 1 -0 -1 -2 -2 -1 -1 -0 -0 -0
13 13 13 13 14 14 14 15 15 15 16 16 16 17 17 18 19 19 19 19 19 18 17 15 14 12 11 11 11 11 10 7 5 2 -0 -1 -2 -2 -1 -1 -0 -0 -0
12 12 12 13 13 14 14 15 15 15 16 16 16 16 17 18 18 19 19 19 19 19 18 17 15 13 12 11 11 10 10 9 6 3 0 -1 -2 -2 -1 -1 -1 -0 -1
12 12 12 12 13 13 14 14 15 15 16 16 16 16 17 18 18 19 19 19 19 19 19 18 17 15 13 12 11 10 10 9 7 3 -0 -1 -2 -2 -1 -1 -1 -1 -1
12 12 12 12 12 13 13 14 14 15 15 16 16 16 17 18 18 18 19 19 19 19 19 19 18 16 14 13 11 11 10 9 7 3 -0 -1 -2 -2 -1 -1 -1 -1 -0
12 12 12 12 12 12 13 13 14 14 15 15 16 16 17 17 18 18 18 18 18 18 19 18 18 17 15 14 12 11 10 9 7 3 -0 -1 -2 -2 -2 -1 -1 -0 -0
12 12 12 12 12 12 12 13 13 14 14 15 15 16 16 16 17 17 17 17 17 18 18 18 18 17 16 14 13 11 10 9 7 3 -0 -1 -2 -2 -2 -1 -1 -0 -0
12 12 12 12 12 13 13 13 13 13 14 14 15 15 14 15 16 16 16 16 16 16 17 18 17 17 16 14 13 12 11 10 7 3 0 -1 -2 -2 -2 -1 -1 -1 -0
13 13 13 13 13 14 14 14 14 14 14 14 14 14 14 14 15 15 15 15 15 15 16 17 17 16 16 15 14 13 12 11 8 4 1 -1 -2 -2 -2 -1 -1 -1 -0
14 14 14 14 15 15 15 15 15 15 15 14 15 15 14 14 14 14 14 14 14 14 15 16 16 16 15 14 14 14 13 12 9 4 1 -1 -2 -2 -1 -1 -1 -0 -0
15 15 16 16 16 16 16 16 16 16 16 15 15 15 15 15 15 14 14 14 14 14 14 14 14 14 14 14 14 14 13 13 10 4 1 -1 -1 -1 -1 -1 -0 -0 0
16 16 17 17 16 16 16 16 16 16 16 16 15 15 15 15 15 15 14 14 14 14 14 14 13 13 13 14 14 13 13 12 10 5 1 -1 -1 -1 -1 -0 -0 0 1
17 17 17 17 17 16 16 17 17 17 16 16 16 16 15 15 15 15 15 14 14 13 13 13 13 12 12 13 13 13 12 12 10 6 2 -0 -1 -0 -0 -0 0 1 1
17 17 17 17 17 17 17 17 17 17 17 17 17 16 16 15 15 15 15 14 13 13 13 13 12 12 12 12 12 11 11 12 10 6 2 -0 -0 -0 0 0 1 1 2
18 18 17 17 17 17 17 17 17 17 17 17 17 17 16 16 16 15 15 15 13 12 12 12 12 12 12 11 11 10 11 11 9 5 1 -0 -0 0 0 1 1 2 2
18 18 18 18 18 18 18 18 18 18 18 18 17 17 17 16 16 15 15 15 14 13 12 12 12 12 12 11 10 10 10 10 7 4 1 -0 -0 0 0 1 1 2 3
19 18 18 18 18 18 18 18 18 18 18 18 18 18 17 17 16 16 15 15 15 14 12 12 12 12 11 10 10 10 10 8 5 2 1 -0 -0 -0 0 1 1 2 3
18 18 18 17 17 16 16 16 16 16 17 17 17 17 17 17 17 16 16 16 15 14 13 12 12 12 11 10 10 10 9 7 4 2 0 -0 -0 -0 0 1 1 2 2
18 17 16 15 15 14 14 14 14 14 15 15 16 16 16 16 16 16 16 16 15 14 13 12 12 12 11 10 10 10 8 5 3 1 0 0 0 0 1 1 2 2 2
16 15 14 13 13 12 12 12 12 12 13 13 14 15 15 15 15 15 15 15 15 14 13 12 12 11 10 10 10 9 7 4 2 1 1 1 1 1 1 2 2 3 2
14 13 12 12 12 11 11 10 11 11 12 12 13 14 14 14 14 14 15 14 14 13 12 12 12 11 10 10 9 8 5 3 1 1 1 1 1 1 1 2 3 3 2
12 11 11 11 11 10 10 10 10 10 11 11 12 13 13 13 13 14 14 14 14 13 12 12 11 11 10 10 9 6 4 2 1 1 1 1 1 1 2 3 3 3 3
10 11 11 11 11 10 10 10 10 10 10 10 11 11 11 12 12 13 13 13 13 13 12 12 11 10 10 9 8 5 3 2 2 2 1 1 1 2 3 3 3 3 2
10 11 11 12 12 11 10 10 10 10 10 10 10 10 10 10 11 12 12 13 13 13 12 12 11 10 10 9 8 5 4 3 2 2 2 2 2 2 3 4 3 3 2
10 11 12 13 13 12 11 11 11 11 11 10 10 9 9 10 11 11 12 12 12 12 12 12 11 10 10 9 7 5 3 3 2 2 2 2 2 3 3 4 3 3 3
10 11 13 14 14 13 13 12 12 12 12 11 10 10 10 10 11 11 12 12 12 12 12 11 11 10 10 9 7 5 3 2 2 2 2 2 3 3 4 4 3 3 3